THA341 VTBS-OPKC

Flight info

Callsign THA341
Flight time N/A
Altitude 38000
Route VTBS/20L TARED P646 BETNO N895 SAGOD/N0481F400 N895 BBS T1 BPL A791 PRA A325 KE
Aircraft B772/H-SDE2E3FGHIJ5LORVWXY/LB1D1

Departure

Time N/A
Airport Suvarnabhumi Airport (VTBS)

Arrival

Time 2026-04-27 12:47
Airport Jinnah International Airport (OPKC)
Time Latitude Longitude Altitude Speed Heading
2026-04-27 12:22 25.43164 69.38090 39018 ft 456 kts 258°
2026-04-27 12:23 25.42132 69.33563 38408 ft 460 kts 258°
2026-04-27 12:23 25.41601 69.31239 38099 ft 461 kts 258°
2026-04-27 12:23 25.40824 69.27841 37601 ft 462 kts 257°
2026-04-27 12:23 25.40035 69.24397 36870 ft 462 kts 257°
2026-04-27 12:24 25.39246 69.20957 36133 ft 461 kts 257°
2026-04-27 12:24 25.38458 69.17524 35371 ft 461 kts 257°
2026-04-27 12:24 25.37668 69.14083 34523 ft 464 kts 257°
2026-04-27 12:24 25.36870 69.10612 33627 ft 467 kts 257°
2026-04-27 12:25 25.35806 69.05998 32564 ft 466 kts 257°
2026-04-27 12:25 25.35008 69.02544 31904 ft 461 kts 257°
2026-04-27 12:25 25.34473 69.00233 31481 ft 458 kts 257°
2026-04-27 12:25 25.33697 68.96877 30861 ft 454 kts 256°
2026-04-27 12:26 25.32918 68.93511 30250 ft 451 kts 256°
2026-04-27 12:26 25.32142 68.90163 29608 ft 447 kts 256°
2026-04-27 12:26 25.31373 68.86848 28862 ft 445 kts 256°
2026-04-27 12:26 25.30607 68.83548 28144 ft 442 kts 256°
2026-04-27 12:27 25.29845 68.80273 27468 ft 438 kts 256°
2026-04-27 12:27 25.29089 68.77024 26807 ft 435 kts 256°
2026-04-27 12:27 25.28339 68.73806 26156 ft 431 kts 256°
2026-04-27 12:27 25.27604 68.70650 25526 ft 428 kts 256°
2026-04-27 12:28 25.26864 68.67478 24889 ft 425 kts 256°
2026-04-27 12:28 25.26126 68.64318 24249 ft 423 kts 256°
2026-04-27 12:28 25.25392 68.61179 23612 ft 421 kts 256°
2026-04-27 12:28 25.24660 68.58052 22948 ft 420 kts 256°
2026-04-27 12:29 25.23930 68.54940 22251 ft 417 kts 256°
2026-04-27 12:29 25.23205 68.51856 21614 ft 413 kts 256°
2026-04-27 12:29 25.22486 68.48800 21002 ft 409 kts 256°
2026-04-27 12:29 25.21774 68.45773 20406 ft 406 kts 256°
2026-04-27 12:30 25.21076 68.42812 19832 ft 403 kts 256°
2026-04-27 12:30 25.20372 68.39826 19253 ft 400 kts 256°
2026-04-27 12:30 25.19673 68.36866 18666 ft 398 kts 256°
2026-04-27 12:30 25.18978 68.33918 18086 ft 396 kts 256°
2026-04-27 12:31 25.18284 68.30983 17468 ft 394 kts 256°
2026-04-27 12:31 25.17595 68.28067 16871 ft 391 kts 256°
2026-04-27 12:31 25.16909 68.25170 16298 ft 388 kts 256°
2026-04-27 12:31 25.16228 68.22295 15750 ft 386 kts 256°
2026-04-27 12:32 25.15552 68.19442 15206 ft 383 kts 256°
2026-04-27 12:32 25.14886 68.16638 14663 ft 381 kts 256°
2026-04-27 12:32 25.14215 68.13814 14116 ft 381 kts 255°
2026-04-27 12:32 25.13544 68.10991 13566 ft 380 kts 255°
2026-04-27 12:33 25.12873 68.08172 12968 ft 380 kts 255°
2026-04-27 12:33 25.12202 68.05356 12403 ft 378 kts 255°
2026-04-27 12:33 25.11533 68.02552 11853 ft 377 kts 255°
2026-04-27 12:33 25.10881 67.99821 11282 ft 353 kts 255°
2026-04-27 12:34 25.10282 67.97313 10790 ft 325 kts 255°
2026-04-27 12:34 25.09725 67.94984 10363 ft 304 kts 255°
2026-04-27 12:34 25.09209 67.92824 10249 ft 291 kts 255°
2026-04-27 12:34 25.08699 67.90695 10104 ft 282 kts 255°
2026-04-27 12:35 25.08206 67.88637 9972 ft 273 kts 255°
2026-04-27 12:35 25.07729 67.86647 9859 ft 266 kts 255°
2026-04-27 12:35 25.07252 67.84660 9635 ft 270 kts 255°
2026-04-27 12:35 25.06772 67.82664 9394 ft 270 kts 255°
2026-04-27 12:36 25.06287 67.80645 9117 ft 274 kts 255°
2026-04-27 12:36 25.05802 67.78626 8817 ft 271 kts 255°
2026-04-27 12:36 25.05327 67.76652 8532 ft 268 kts 255°
2026-04-27 12:36 25.04852 67.74679 8244 ft 265 kts 255°
2026-04-27 12:37 25.04381 67.72722 7948 ft 263 kts 255°
2026-04-27 12:37 25.03914 67.70784 7666 ft 261 kts 255°
2026-04-27 12:37 25.03450 67.68856 7376 ft 259 kts 256°
2026-04-27 12:37 25.02990 67.66947 7101 ft 257 kts 255°
2026-04-27 12:38 25.02529 67.65033 6810 ft 258 kts 256°
2026-04-27 12:38 25.02069 67.63134 6563 ft 256 kts 256°
2026-04-27 12:38 25.01614 67.61248 6291 ft 254 kts 256°
2026-04-27 12:38 25.01172 67.59402 6014 ft 251 kts 256°
2026-04-27 12:39 25.00728 67.57544 5727 ft 251 kts 256°
2026-04-27 12:39 25.00283 67.55686 5440 ft 250 kts 256°
2026-04-27 12:39 24.99843 67.53843 5155 ft 248 kts 256°
2026-04-27 12:39 24.99403 67.52004 4879 ft 249 kts 256°
2026-04-27 12:40 24.98964 67.50166 4579 ft 246 kts 256°
2026-04-27 12:40 24.98529 67.48352 4315 ft 245 kts 255°
2026-04-27 12:40 24.98095 67.46538 3971 ft 246 kts 255°
2026-04-27 12:40 24.97657 67.44714 3636 ft 246 kts 255°
2026-04-27 12:41 24.97233 67.42885 3332 ft 247 kts 255°
2026-04-27 12:41 24.96810 67.41090 3060 ft 237 kts 254°
2026-04-27 12:41 24.96402 67.39444 3000 ft 215 kts 254°
2026-04-27 12:41 24.96010 67.37886 2990 ft 209 kts 253°
2026-04-27 12:42 24.95625 67.36356 2988 ft 206 kts 253°
2026-04-27 12:42 24.95240 67.34831 2997 ft 208 kts 254°
2026-04-27 12:42 24.94859 67.33317 2828 ft 204 kts 254°
2026-04-27 12:42 24.94485 67.31829 2609 ft 199 kts 253°
2026-04-27 12:43 24.94119 67.30378 2382 ft 193 kts 255°
2026-04-27 12:43 24.93773 67.29010 2135 ft 177 kts 255°
2026-04-27 12:43 24.93465 67.27780 1900 ft 161 kts 254°
2026-04-27 12:43 24.93182 67.26657 1717 ft 143 kts 254°
2026-04-27 12:44 24.92921 67.25618 1538 ft 138 kts 253°
2026-04-27 12:44 24.92667 67.24615 1357 ft 132 kts 253°
2026-04-27 12:44 24.92443 67.23720 1217 ft 114 kts 252°
2026-04-27 12:44 24.92225 67.22859 1081 ft 127 kts 251°
2026-04-27 12:45 24.91982 67.21898 911 ft 128 kts 252°
2026-04-27 12:45 24.91751 67.20978 763 ft 122 kts 253°
2026-04-27 12:45 24.91532 67.20104 638 ft 121 kts 253°
2026-04-27 12:45 24.91294 67.19195 385 ft 124 kts 250°
2026-04-27 12:46 24.91060 67.18290 228 ft 120 kts 253°
2026-04-27 12:46 24.90848 67.17374 159 ft 125 kts 252°
2026-04-27 12:46 24.90617 67.16491 108 ft 108 kts 255°
2026-04-27 12:46 24.90449 67.15807 108 ft 67 kts 254°
2026-04-27 12:47 24.90373 67.15503 110 ft 35 kts 257°
2026-04-27 12:47 24.90317 67.15266 108 ft 30 kts 255°
2026-04-27 12:47 24.90250 67.15048 108 ft 30 kts 241°
2026-04-27 12:47 24.90108 67.14883 107 ft 30 kts 218°
2026-04-27 12:48 24.90046 67.14878 107 ft 6 kts 133°
2026-04-27 12:48 24.90032 67.14918 106 ft 6 kts 99°
2026-04-27 12:48 24.90038 67.14961 108 ft 6 kts 77°
2026-04-27 12:48 24.90047 67.15003 106 ft 6 kts 75°
2026-04-27 12:49 24.90057 67.15045 107 ft 6 kts 73°
2026-04-27 12:49 24.90069 67.15087 107 ft 6 kts 72°
2026-04-27 12:49 24.90081 67.15128 108 ft 6 kts 71°
2026-04-27 12:49 24.90092 67.15170 107 ft 6 kts 74°
2026-04-27 12:50 24.90112 67.15249 107 ft 13 kts 74°
2026-04-27 12:50 24.90134 67.15343 106 ft 13 kts 76°
2026-04-27 12:50 24.90157 67.15435 106 ft 13 kts 75°
2026-04-27 12:50 24.90180 67.15528 108 ft 13 kts 75°
2026-04-27 12:51 24.90204 67.15621 107 ft 13 kts 74°
2026-04-27 12:51 24.90228 67.15714 106 ft 13 kts 74°
2026-04-27 12:51 24.90252 67.15807 108 ft 13 kts 74°
2026-04-27 12:51 24.90275 67.15900 108 ft 13 kts 76°
2026-04-27 12:52 24.90297 67.15993 106 ft 13 kts 75°
2026-04-27 12:52 24.90322 67.16086 107 ft 13 kts 72°
2026-04-27 12:52 24.90348 67.16178 108 ft 13 kts 75°
2026-04-27 12:52 24.90369 67.16271 109 ft 13 kts 73°
2026-04-27 12:53 24.90415 67.16457 106 ft 13 kts 75°
2026-04-27 12:53 24.90438 67.16550 107 ft 13 kts 75°
2026-04-27 12:53 24.90458 67.16644 107 ft 13 kts 85°
2026-04-27 12:54 24.90401 67.16707 106 ft 13 kts 158°
2026-04-27 12:54 24.90339 67.16773 106 ft 13 kts 125°
2026-04-27 12:54 24.90306 67.16825 105 ft 3 kts 125°
2026-04-27 12:54 24.90298 67.16836 107 ft 0 kts 125°